Lihue, HI

9:17 AM HST on December 05, 2016 (GMT -1000)
Lihue

Weather History for PHLI - December, 2012

Change the Weather History Date:

Wednesday, December 12, 2012

  Actual Average Record
Temperature  
Mean Temperature 75 °F 74 °F  
Max Temperature 79 °F 79 °F 83 °F (1977)
Min Temperature 70 °F 68 °F 56 °F (1967)
Degree Days  
Heating Degree Days 0 0  
Month to date heating degree days 0 0  
Since 1 July heating degree days 0 0  
Cooling Degree Days 10 8  
Month to date cooling degree days 133 107  
Year to date cooling degree days 3974 3798  
Growing Degree Days 25 (Base 50)    
Moisture  
Dew Point 64 °F    
Average Humidity 70    
Maximum Humidity 84    
Minimum Humidity 56    
Precipitation  
Precipitation 0.19 in 0.18 in 1.53 in (2008)
Month to date precipitation 3.83 1.95  
Year to date precipitation 40.64 33.80  
Snow  
Snow 0.00 in - - ()
Month to date snowfall 0.0  
Since 1 July snowfall 0.0  
Snow Depth 0.00 in    
Sea Level Pressure  
Sea Level Pressure 30.12 in    
Wind  
Wind Speed 19 mph (ENE)    
Max Wind Speed 30 mph    
Max Gust Speed 36 mph    
Visibility 9 miles    
Events Rain    
T = Trace of Precipitation, MM = Missing Value Source: NWS Daily Summary

Daily Weather History Graph

Daily Weather History Graph

Search for Another Location

Airport or City:

Trip Planner

Search our weather history database for the weather conditions in past years. The results will help you decide how hot, cold, wet, or windy it might be!

Date:

Astronomy

Dec. 12, 2012 Rise Set
Actual Time 7:07 AM HST 5:55 PM HST
Civil Twilight 6:42 AM HST 6:20 PM HST
Nautical Twilight 6:15 AM HST 6:47 PM HST
Astronomical Twilight 5:47 AM HST 7:15 PM HST
Moon 6:26 AM HST (12/12) 5:43 PM HST (12/12)
Length of Visible Light 11h 37m
Length of Day
10h 48m
Waning Crescent, 0% of the Moon is Illuminated
Dec 12
Waning Crescent
Dec 12
New
Dec 19
First Quarter
Dec 28
Full
Jan 4
Last Quarter

Hourly Weather History & Observations

Time (HST) Temp. Dew Point Humidity Pressure Visibility Wind Dir Wind Speed Gust Speed Precip Events Conditions
12:53 AM 75.0 °F 64.9 °F 71% 30.13 in 10.0 mi ENE 17.3 mph - N/A   Overcast
1:53 AM 73.9 °F 63.0 °F 68% 30.12 in 10.0 mi ENE 21.9 mph - 0.01 in   Partly Cloudy
2:53 AM 75.0 °F 62.1 °F 64% 30.10 in 10.0 mi ENE 19.6 mph - N/A   Partly Cloudy
3:53 AM 72.0 °F 64.9 °F 78% 30.09 in 10.0 mi NE 19.6 mph - 0.01 in   Mostly Cloudy
4:53 AM 73.0 °F 64.9 °F 76% 30.09 in 10.0 mi NE 16.1 mph - N/A   Partly Cloudy
5:53 AM 73.9 °F 64.9 °F 73% 30.09 in 10.0 mi NE 18.4 mph 25.3 mph N/A   Scattered Clouds
6:28 AM 73.4 °F 64.4 °F 73% 30.11 in 10.0 mi ENE 17.3 mph - 0.00 in Rain Light Rain
6:36 AM 73.4 °F 64.4 °F 73% 30.11 in 10.0 mi ENE 17.3 mph - 0.00 in   Mostly Cloudy
6:53 AM 75.0 °F 64.0 °F 69% 30.11 in 10.0 mi NE 17.3 mph - 0.00 in   Scattered Clouds
7:53 AM 72.0 °F 66.0 °F 81% 30.14 in 10.0 mi NE 17.3 mph - 0.02 in Rain Light Rain
8:46 AM 71.6 °F 64.4 °F 78% 30.15 in 3.0 mi NE 17.3 mph 33.4 mph 0.07 in Rain Light Rain
8:53 AM 73.0 °F 66.0 °F 79% 30.15 in 3.0 mi NE 18.4 mph - 0.07 in Rain Light Rain
8:54 AM 73.4 °F 66.2 °F 78% 30.16 in 10.0 mi NE 17.3 mph - 0.00 in Rain Light Rain
9:53 AM 75.0 °F 66.9 °F 76% 30.16 in 10.0 mi ENE 23.0 mph 29.9 mph 0.03 in Rain Light Rain
10:53 AM 77.0 °F 64.9 °F 66% 30.15 in 10.0 mi NE 21.9 mph - 0.00 in   Scattered Clouds
11:53 AM 77.0 °F 64.9 °F 66% 30.14 in 10.0 mi ENE 19.6 mph 31.1 mph 0.00 in   Scattered Clouds
12:53 PM 75.0 °F 64.9 °F 71% 30.11 in 10.0 mi ENE 20.7 mph 32.2 mph N/A   Overcast
1:53 PM 78.1 °F 64.9 °F 64% 30.08 in 10.0 mi ENE 18.4 mph - N/A   Mostly Cloudy
2:53 PM 79.0 °F 64.0 °F 60% 30.06 in 10.0 mi ENE 19.6 mph - N/A   Scattered Clouds
3:53 PM 78.1 °F 62.1 °F 58% 30.06 in 10.0 mi ENE 18.4 mph - N/A   Scattered Clouds
4:53 PM 77.0 °F 61.0 °F 58% 30.08 in 10.0 mi ENE 23.0 mph - N/A   Scattered Clouds
5:53 PM 75.0 °F 64.0 °F 69% 30.09 in 10.0 mi ENE 21.9 mph 25.3 mph 0.00 in Rain Light Rain
5:55 PM 75.2 °F 64.4 °F 69% 30.10 in 10.0 mi ENE 20.7 mph 25.3 mph N/A   Overcast
6:53 PM 75.0 °F 61.0 °F 62% 30.12 in 10.0 mi ENE 19.6 mph 25.3 mph N/A   Scattered Clouds
7:53 PM 75.0 °F 62.1 °F 64% 30.13 in 10.0 mi ENE 18.4 mph 27.6 mph N/A   Overcast
8:53 PM 75.9 °F 64.9 °F 69% 30.14 in 10.0 mi ENE 18.4 mph - N/A   Mostly Cloudy
9:53 PM 75.0 °F 64.9 °F 71% 30.15 in 10.0 mi NE 16.1 mph - N/A   Scattered Clouds
10:53 PM - - N/A% 30.16 in 10.0 mi NE 15.0 mph 21.9 mph 0.00 in   Overcast
11:13 PM - - N/A% 30.17 in 4.0 mi East 26.5 mph 33.4 mph 0.01 in Rain Rain
11:25 PM - - N/A% 30.17 in 5.0 mi ENE 13.8 mph - 0.05 in Rain Light Rain
11:53 PM 73.0 °F 66.0 °F 79% 30.17 in 10.0 mi NE 15.0 mph - 0.05 in   Overcast